Weather History for Hurlburt Field, FL

Change the Weather History Date:

Monday, January 14, 2013

  Actual Average Record
Temperature  
Mean Temperature 70 °F -  
Max Temperature 73 °F 59 °F 73 °F (2013)
Min Temperature 68 °F 40 °F 21 °F (2011)
Cooling Degree Days 6    
Growing Degree Days 20 (Base 50)    
Moisture  
Dew Point 70 °F    
Average Humidity 100    
Maximum Humidity 100    
Minimum Humidity 100    
Precipitation  
Precipitation 0.00 in - - ()
Sea Level Pressure  
Sea Level Pressure 30.07 in    
Wind  
Wind Speed 9 mph (SSE)    
Max Wind Speed 14 mph    
Max Gust Speed 18 mph    
Visibility 6 miles    
Events Fog    
Averages and records for this station are not official NWS values.
T = Trace of Precipitation, MM = Missing Value Source: NWS Daily Summary

Daily Weather History Graph

Daily Weather History Graph

Search for Another Location

Airport:

Trip Planner

Search our weather history database for the weather conditions in past years. The results will help you decide how hot, cold, wet, or windy it might be!

Date:

Astronomy

Jan. 14, 2013 Rise Set
Actual Time 6:44 AM CST 5:07 PM CST
Civil Twilight 6:18 AM CST 5:33 PM CST
Nautical Twilight 5:48 AM CST 6:03 PM CST
Astronomical Twilight 5:19 AM CST 6:32 PM CST
Moon 8:34 AM CST (1/14) 8:33 PM CST (1/14)
Length of Visible Light 11h 15m
Length of Day
10h 23m
Waxing Crescent, 11% of the Moon is Illuminated
Jan 14
Waxing Crescent
Jan 18
First Quarter
Jan 26
Full
Feb 3
Last Quarter
Feb 10
New

Hourly Weather History & Observations

Time (CST) Temp. Dew Point Humidity Pressure Visibility Wind Dir Wind Speed Gust Speed Precip Events Conditions
12:55 AM 69.8 °F 69.8 °F 100% 30.04 in 7.0 mi SSE 9.2 mph - N/A   Overcast
1:55 AM 69.8 °F 69.8 °F 100% 30.04 in 5.0 mi SSE 8.1 mph - N/A   Overcast
2:55 AM 69.8 °F 69.8 °F 100% 30.05 in 2.0 mi SE 6.9 mph - N/A   Overcast
3:11 AM 69.8 °F 69.8 °F 100% 30.03 in 2.0 mi SSE 9.2 mph - N/A   Overcast
3:51 AM 69.8 °F 69.8 °F 100% 30.04 in 1.2 mi South 8.1 mph - N/A   Overcast
3:55 AM 69.8 °F 69.8 °F 100% 30.05 in 1.0 mi SSE 8.1 mph - N/A   Mist
4:55 AM 69.8 °F 69.8 °F 100% 30.04 in 4.0 mi SSE 12.7 mph - N/A   Overcast
5:12 AM 68.0 °F 68.0 °F 100% 30.04 in 6.0 mi SSE 13.8 mph - N/A   Overcast
5:55 AM 68.0 °F 68.0 °F 100% 30.06 in 9.0 mi SSE 10.4 mph - N/A   Overcast
6:46 AM 69.8 °F 69.8 °F 100% 30.06 in 0.2 mi SSE 10.4 mph - N/A Fog Fog
6:56 AM 69.8 °F 69.8 °F 100% 30.08 in 0.2 mi SSE 8.1 mph - N/A Fog Fog
7:10 AM 69.8 °F 69.8 °F 100% 30.07 in 0.6 mi SSE 6.9 mph - N/A   Overcast
7:45 AM 69.8 °F 69.8 °F 100% 30.08 in 1.5 mi SSE 9.2 mph - N/A   Overcast
7:57 AM 69.8 °F 69.8 °F 100% 30.10 in 3.0 mi SSE 6.9 mph - N/A   Overcast
8:38 AM 69.8 °F 69.8 °F 100% 30.10 in 10.0 mi SSE 6.9 mph - N/A   Mostly Cloudy
8:55 AM 69.8 °F 69.8 °F 100% 30.12 in 3.0 mi ESE 8.1 mph - N/A   Overcast
9:46 AM 71.6 °F 71.6 °F 100% 30.11 in 5.0 mi SE 8.1 mph - N/A   Overcast
9:59 AM 71.6 °F 71.6 °F 100% 30.12 in 6.0 mi SE 11.5 mph - N/A   Mostly Cloudy
10:50 AM 73.4 °F 73.4 °F 100% 30.09 in 5.0 mi SSE 12.7 mph 18.4 mph N/A   Overcast
10:56 AM 71.6 °F 71.6 °F 100% 30.09 in 5.0 mi SE 13.8 mph - N/A   Overcast
11:59 AM 73.4 °F 73.4 °F 100% 30.07 in 5.0 mi SE 11.5 mph - N/A   Overcast
12:55 PM 71.6 °F 71.6 °F 100% 30.06 in 10.0 mi SSE 12.7 mph - N/A   Overcast
1:59 PM 71.6 °F 71.6 °F 100% 30.06 in 6.0 mi SSE 13.8 mph - N/A   Overcast
2:59 PM 71.6 °F 71.6 °F 100% 30.08 in 10.0 mi SSE 11.5 mph - N/A   Mostly Cloudy
3:59 PM 69.8 °F 69.8 °F 100% 30.09 in 10.0 mi SSE 9.2 mph - N/A   Overcast
4:57 PM 69.8 °F 69.8 °F 100% 30.09 in 10.0 mi SSE 8.1 mph - N/A   Mostly Cloudy
5:57 PM 68.0 °F 68.0 °F 100% 30.10 in 10.0 mi SE 8.1 mph - N/A   Mostly Cloudy
6:59 PM 68.0 °F 68.0 °F 100% 30.09 in 10.0 mi SE 9.2 mph - N/A   Mostly Cloudy
7:59 PM 68.0 °F 68.0 °F 100% 30.09 in 10.0 mi SE 5.8 mph - N/A   Mostly Cloudy
8:55 PM 68.0 °F 68.0 °F 100% 30.08 in 10.0 mi SE 6.9 mph - N/A   Overcast
9:55 PM 68.0 °F 68.0 °F 100% 30.07 in 10.0 mi SE 8.1 mph - N/A   Overcast
10:55 PM 68.4 °F 68.4 °F 100% 30.07 in 10.0 mi SE 10.4 mph - N/A   Overcast
11:55 PM 68.5 °F 68.5 °F 100% 30.07 in 10.0 mi SE 11.5 mph - N/A   Overcast